Regional Weather Roundup
Issued by NWS Sioux Falls, SD

Home | Current Version | Previous Version | Graphics & Text | Print | Product List | Glossary Off
Versions: 1 2 3 4 5 6 7 8 9 10 11 12 13 14 15 16 17 18 19 20 21 22 23 24 25 26 27 28 29 30 31 32 33 34 35 36 37 38 39 40 41 42 43 44 45 46 47 48 49 50

000
ASUS43 KFSD 190210
RWRFSD

WEATHER ROUNDUP FOR SE SOUTH DAKOTA/SW MINNESOTA/NW IOWA
NATIONAL WEATHER SERVICE SIOUX FALLS SD
800 PM CST WED JAN 18 2017

NOTE: "FAIR" INDICATES FEW OR NO CLOUDS BELOW 12,000 FEET WITH NO
SIGNIFICANT WEATHER AND OR OBSTRUCTIONS TO VISIBILITY.


SDZ038>040-050-052>070-190300-
SOUTHEAST SOUTH DAKOTA

CITY           SKY/WX    TMP DP  RH WIND       PRES   REMARKS
BROOKINGS      CLOUDY    34  32  92 S10       29.74F WCI  26
CHAMBERLAIN    CLOUDY    34  29  83 SE3       29.68F
HURON          CLOUDY    32  30  92 SE7       29.71S WCI  26
MADISON          N/A     34  34 100 S14         N/A  WCI  24
MITCHELL       CLOUDY    37  34  89 S10       29.73F
SIOUX FALLS    CLEAR     42  38  85 S15       29.77F
WINNER         FAIR      45  24  43 S14       29.67F
YANKTON        CLEAR     39  34  81 S8        29.78S
$$

MNZ071-072-080-081-089-090-097-098-190300-
SOUTHWEST MINNESOTA

CITY           SKY/WX    TMP DP  RH WIND       PRES   REMARKS
FAIRMONT       CLEAR     35  34  96 S9        29.85F WCI  28
JACKSON        CLEAR     36  34  93 S14       29.83S
LUVERNE        CLEAR     34  32  93 S7        29.80F WCI  28
MARSHALL       CLOUDY    38  35  89 SW18      29.75F
MONTEVIDEO     CLOUDY    30  28  93 S6        29.79F WCI  24
PIPESTONE      CLEAR     37  36  93 S12       29.77F
REDWOOD FALLS  CLOUDY    34  31  88 SE9       29.79F WCI  27
TRACY          CLEAR     38  36  91 S15G22    29.77S
WINDOM         CLEAR     37  36  93 S9        29.81F
WORTHINGTON    CLEAR     39  35  86 S17       29.81S
$$

IAZ001>003-012>014-020>022-031-032-NEZ013-014-SDZ071-190300-
NORTHWEST IOWA

CITY           SKY/WX    TMP DP  RH WIND       PRES   REMARKS
CHEROKEE       CLEAR     38  37  95 S8        29.86F
DENISON        CLEAR     39  37  93 S10       29.88R
ESTHERVILLE    CLEAR     35  35 100 S12       29.84F WCI  27
LE MARS        CLEAR     39  36  87 S10       29.84F
ORANGE CITY    CLEAR     37  36  93 S9        29.83S
SHELDON        CLEAR     37  37 100 S12       29.81F
SIOUX CITY     CLEAR     38  35  89 SE12      29.86S
SPENCER        CLEAR     37  35  92 S12       29.85S
STORM LAKE     CLEAR     36  34  93 S13       29.87S
$$

ABBREVIATIONS USED IN REMARKS
   TC - TEMPERATURE IN CELSIUS
  WCI - WIND CHILL INDEX
   HX - HEAT INDEX
  VSB - VISIBILITY




USA.gov is the U.S. government's official web portal to all federal, state and local government web resources and services.